{"data":{"norad_id":65035,"intl_designator":"2025-161W","name":"STARLINK-34286","alt_names":[],"object_type":"PAYLOAD","status":"ACTIVE","operator":null,"country":"US","launch_date":"2025-07-30","launch_site_code":"AFWTR","launch_vehicle":null,"mission":null,"orbit_class":"UNKNOWN","rcs_meters":null,"size_class":null,"mass_kg":null,"dimensions":null,"purposes":["comms"],"wikipedia_slug":null,"has_3d_model":false,"image_url":null,"decayed_at":null,"tle_current":{"epoch":"2026-05-24T17:06:39.076128Z","epoch_age_seconds":93017,"freshness":"FRESH","line1":"1 65035U 25161W   26144.71295227  .00014221  00000+0  43140-3 0  9990","line2":"2 65035  53.1588 300.7786 0000822  87.7777 272.3319 15.34386724 45871","mean_motion":15.34386724,"eccentricity":8.22e-5,"inclination_deg":53.1588,"raan_deg":300.7786,"arg_perigee_deg":87.7777,"mean_anomaly_deg":272.3319,"bstar":0.0004314,"rev_number":4587,"period_min":93.848570081867,"perigee_km":462.1803792501,"apogee_km":463.30501987271,"semimajor_km":6840.8796995614,"source":"CELESTRAK","updated_at":"2026-05-25T13:38:20.672487Z"}}}